Location: *
(50.3194°N, 7.1067°E)
Time: 08:56:17
(UTC+00:00)

H-2A R/B - Pass Details

Date: 22 September 2019
Orbit: 734 x 836 km, 98.3° (Epoch: 14 October)

Event Time Altitude Azimuth Distance (km) Brightness Sun altitude
Exits shadow 20:21:02 15° 213° (SSW) 1,913 4.0 -26.3°
Maximum altitude 20:24:18 30° 266° (W) 1,335 3.6 -26.7°
Drops below altitude 10° 20:28:46 10° 327° (NNW) 2,316 5.4 -27.2°
Sets 20:31:23 0° 339° (NNW) 3,265 6.2 -27.6°
